New York, NY

11:46 PM EST on February 12, 2016 (GMT -0500)
Central Park

Weather History for KNYC - June, 2011

Change the Weather History Date:

Friday, June 17, 2011

  Actual Average Record
Temperature  
Mean Temperature 70 °F 72 °F  
Max Temperature 76 °F 80 °F 96 °F (1957)
Min Temperature 64 °F 64 °F 51 °F (1926)
Degree Days  
Heating Degree Days 0 0  
Month to date heating degree days 2 17  
Since 1 June heating degree days 2 17  
Since 1 July heating degree days 4726 4748  
Cooling Degree Days 5 7  
Month to date cooling degree days 115 95  
Year to date cooling degree days 215 164  
Since 1 June cooling degree days 115 95  
Growing Degree Days 18 (Base 50)    
Moisture  
Dew Point 65 °F    
Average Humidity 84    
Maximum Humidity 100    
Minimum Humidity 68    
Precipitation  
Precipitation 1.82 in 0.16 in 1.82 in (2011)
Month to date precipitation 2.59 2.70  
Year to date precipitation 27.64 22.49  
Snow  
Snow 0.00 in 0.00 in 0.00 in (2002)
Month to date snowfall 0.0 0.0  
Since 1 July snowfall 61.9 25.8  
Snow Depth 0.00 in    
Sea Level Pressure  
Sea Level Pressure 29.89 in    
Wind  
Wind Speed 3 mph (SSW)    
Max Wind Speed 8 mph    
Max Gust Speed 20 mph    
Visibility 3 miles    
Events Fog , Rain    
T = Trace of Precipitation, MM = Missing Value Source: NWS Daily Summary

Daily Weather History Graph

Daily Weather History Graph

Search for Another Location

Airport or City:

Trip Planner

Search our weather history database for the weather conditions in past years. The results will help you decide how hot, cold, wet, or windy it might be!

Date:

Astronomy

Jun. 17, 2011 Rise Set
Actual Time 5:24 AM EDT 8:29 PM EDT
Civil Twilight 4:50 AM EDT 9:03 PM EDT
Nautical Twilight 4:07 AM EDT 9:45 PM EDT
Astronomical Twilight 3:17 AM EDT 10:36 PM EDT
Moon 10:04 PM EDT (6/17) 7:09 AM EDT (6/17)
Length of Visible Light 16h 12m
Length of Day
15h 05m
Waning Gibbous, 96% of the Moon is Illuminated
Jun 17
Waning Gibbous
Jun 23
Last Quarter
Jul 1
New
Jul 8
First Quarter
Jul 15
Full

Hourly Weather History & Observations

Time (EDT) Temp. Dew Point Humidity Pressure Visibility Wind Dir Wind Speed Gust Speed Precip Events Conditions
12:51 AM 71.1 °F 61.0 °F 70% 29.92 in 10.0 mi Variable 6.9 mph - N/A   Overcast
1:51 AM 68.0 °F 63.0 °F 84% 29.93 in 8.0 mi Variable 4.6 mph - 0.00 in Rain Light Rain
2:17 AM 66.2 °F 62.6 °F 88% 29.95 in 4.0 mi Variable 6.9 mph 19.6 mph 0.02 in Rain Light Rain
2:36 AM 64.4 °F 64.4 °F 100% 29.94 in 6.0 mi Variable 5.8 mph - 0.04 in Rain Light Rain
2:51 AM 64.9 °F 64.0 °F 97% 29.91 in 3.0 mi Variable 3.5 mph - 0.06 in Rain Light Rain
3:06 AM 64.4 °F 64.4 °F 100% 29.94 in 1.8 mi SSE 8.1 mph - 0.04 in Rain Heavy Rain
3:13 AM 64.4 °F 62.6 °F 94% 29.94 in 1.5 mi Variable 4.6 mph - 0.10 in Rain Rain
3:22 AM 64.4 °F 64.4 °F 100% 29.95 in 1.8 mi Variable 4.6 mph - 0.14 in Rain Rain
3:44 AM 64.4 °F 62.6 °F 94% 29.93 in 3.0 mi SE 8.1 mph - 0.28 in Rain Light Rain
3:51 AM 64.0 °F 63.0 °F 96% 29.90 in 4.0 mi ESE 8.1 mph - 0.28 in Rain Light Rain
4:17 AM 64.4 °F 64.4 °F 100% 29.93 in 4.0 mi SSE 9.2 mph - 0.00 in   Overcast
4:42 AM 64.4 °F 64.4 °F 100% 29.92 in 2.5 mi Variable 4.6 mph - 0.02 in Rain Light Rain
4:51 AM 64.9 °F 64.9 °F 100% 29.89 in 2.5 mi Variable 5.8 mph - 0.02 in   Overcast
5:00 AM 66.2 °F 64.4 °F 94% 29.91 in 3.0 mi Variable 4.6 mph - 0.00 in Rain Light Rain
5:09 AM 66.2 °F 64.4 °F 94% 29.92 in 3.0 mi Variable 5.8 mph - 0.01 in Rain Light Rain
5:11 AM 66.2 °F 64.4 °F 94% 29.92 in 1.8 mi Variable 4.6 mph - 0.01 in Rain Heavy Rain
5:15 AM 66.2 °F 64.4 °F 94% 29.92 in 0.8 mi Variable 4.6 mph - 0.08 in Rain Heavy Rain
5:30 AM 66.2 °F 66.2 °F 100% 29.91 in 2.0 mi SSE 5.8 mph - 0.26 in Rain Light Rain
5:46 AM 66.2 °F 66.2 °F 100% 29.92 in 1.2 mi South 8.1 mph - 0.31 in Rain Heavy Rain
5:51 AM 66.0 °F 66.0 °F 100% 29.89 in 1.0 mi Variable 5.8 mph - 0.35 in Rain Heavy Rain
5:57 AM 66.2 °F 66.2 °F 100% 29.91 in 2.0 mi Variable 4.6 mph - 0.01 in Rain Light Rain
6:05 AM 66.2 °F 66.2 °F 100% 29.92 in 4.0 mi Calm Calm - 0.01 in Rain Light Rain
6:44 AM 66.2 °F 66.2 °F 100% 29.92 in 2.5 mi Variable 3.5 mph - 0.03 in   Overcast
6:51 AM 66.9 °F 66.9 °F 100% 29.90 in 2.5 mi Calm Calm - 0.03 in   Overcast
7:11 AM 66.2 °F 66.2 °F 100% 29.92 in 4.0 mi Calm Calm - N/A   Overcast
7:22 AM 68.0 °F 66.2 °F 94% 29.93 in 2.5 mi Variable 3.5 mph - N/A   Overcast
7:51 AM 68.0 °F 66.9 °F 96% 29.90 in 2.5 mi Variable 3.5 mph - N/A   Overcast
8:11 AM 68.0 °F 66.2 °F 94% 29.92 in 4.0 mi Variable 3.5 mph - N/A   Overcast
8:26 AM 68.0 °F 66.2 °F 94% 29.92 in 4.0 mi WSW 5.8 mph - N/A   Mostly Cloudy
8:39 AM 69.8 °F 68.0 °F 94% 29.91 in 5.0 mi SW 4.6 mph - N/A   Scattered Clouds
8:51 AM 69.1 °F 68.0 °F 96% 29.88 in 4.0 mi WSW 6.9 mph - N/A   Partly Cloudy
9:20 AM 69.8 °F 68.0 °F 94% 29.91 in 5.0 mi Calm Calm - N/A   Mostly Cloudy
9:51 AM 70.0 °F 68.0 °F 93% 29.89 in 5.0 mi Variable 4.6 mph - N/A   Mostly Cloudy
9:58 AM 69.8 °F 68.0 °F 94% 29.92 in 5.0 mi Variable 4.6 mph - N/A   Scattered Clouds
10:51 AM 73.0 °F 68.0 °F 84% 29.88 in 7.0 mi Calm Calm - N/A   Scattered Clouds
11:51 AM 73.9 °F 66.9 °F 79% 29.88 in 9.0 mi Calm Calm - N/A   Mostly Cloudy
12:51 PM 73.9 °F 66.0 °F 76% 29.87 in 9.0 mi Variable 4.6 mph - N/A   Scattered Clouds
1:51 PM 73.9 °F 64.9 °F 73% 29.85 in 10.0 mi Variable 3.5 mph - N/A   Mostly Cloudy
2:51 PM 71.1 °F 64.9 °F 81% 29.85 in 10.0 mi Variable 3.5 mph - 0.00 in   Mostly Cloudy
3:01 PM 69.8 °F 62.6 °F 78% 29.88 in 0.8 mi West 9.2 mph 17.3 mph 0.00 in Rain Rain
3:09 PM 64.4 °F 64.4 °F 100% 29.87 in 0.2 mi ESE 13.8 mph 20.7 mph 0.31 in Fog , Rain Heavy Rain
3:23 PM 64.4 °F 64.4 °F 100% 29.87 in 1.0 mi WNW 3.5 mph - 0.47 in Rain Heavy Rain
3:31 PM 64.4 °F 64.4 °F 100% 29.87 in 0.8 mi Variable 3.5 mph - 0.52 in Rain Rain
3:39 PM 64.4 °F 64.4 °F 100% 29.86 in 1.5 mi Calm Calm - 0.56 in Rain Light Rain
3:46 PM 68.0 °F 66.2 °F 94% 29.86 in 2.5 mi Variable 3.5 mph - 0.56 in Rain Light Rain
3:51 PM 69.1 °F 68.0 °F 96% 29.83 in 4.0 mi Calm Calm - 0.56 in   Mostly Cloudy
4:51 PM 66.9 °F 64.9 °F 93% 29.85 in 7.0 mi Calm Calm - N/A   Scattered Clouds
5:16 PM 66.2 °F 64.4 °F 94% 29.90 in 2.5 mi Variable 6.9 mph - 0.01 in Rain Rain
5:18 PM 66.2 °F 64.4 °F 94% 29.90 in 1.8 mi Variable 5.8 mph - 0.01 in Rain Rain
5:29 PM 64.4 °F 62.6 °F 94% 29.89 in 3.0 mi Variable 3.5 mph - 0.04 in Rain Light Rain
5:51 PM 64.0 °F 62.1 °F 93% 29.85 in 3.0 mi North 4.6 mph - 0.05 in Rain Light Rain
6:18 PM 64.4 °F 62.6 °F 94% 29.89 in 0.5 mi WNW 6.9 mph - 0.02 in Fog , Rain Heavy Rain
6:25 PM 64.4 °F 62.6 °F 94% 29.89 in 0.2 mi Calm Calm - 0.28 in Fog , Rain Heavy Rain
6:33 PM 64.4 °F 62.6 °F 94% 29.88 in 0.2 mi Calm Calm - 0.42 in Fog , Rain Heavy Rain
6:51 PM 64.9 °F 64.9 °F 100% 29.86 in 1.2 mi Calm Calm - 0.47 in Rain Light Rain
6:55 PM 66.2 °F 64.4 °F 94% 29.88 in 2.0 mi Calm Calm - 0.00 in   Mostly Cloudy
7:51 PM 66.0 °F 64.9 °F 96% 29.87 in 2.0 mi Variable 3.5 mph - 0.00 in   Scattered Clouds
7:59 PM 66.2 °F 64.4 °F 94% 29.89 in 1.2 mi Calm Calm - N/A   Mostly Cloudy
8:23 PM 64.4 °F 64.4 °F 100% 29.89 in 2.0 mi Calm Calm - N/A   Mostly Cloudy
8:37 PM 64.4 °F 64.4 °F 100% 29.89 in 3.0 mi Calm Calm - N/A   Scattered Clouds
8:51 PM 64.9 °F 64.0 °F 97% 29.86 in 3.0 mi Calm Calm - N/A   Clear
8:59 PM 64.4 °F 64.4 °F 100% 29.89 in 2.5 mi Calm Calm - N/A   Clear
9:09 PM 64.4 °F 64.4 °F 100% 29.89 in 3.0 mi Calm Calm - N/A   Clear
9:51 PM 64.9 °F 64.0 °F 97% 29.86 in 3.0 mi Calm Calm - N/A   Clear
10:12 PM 64.4 °F 64.4 °F 100% 29.89 in 2.5 mi Calm Calm - N/A   Mostly Cloudy
10:22 PM 64.4 °F 64.4 °F 100% 29.88 in 3.0 mi Calm Calm - N/A   Scattered Clouds
10:51 PM 64.9 °F 64.0 °F 97% 29.85 in 4.0 mi Calm Calm - N/A   Partly Cloudy
11:20 PM 64.4 °F 64.4 °F 100% 29.88 in 2.5 mi Calm Calm - N/A   Partly Cloudy
11:49 PM 64.4 °F 64.4 °F 100% 29.88 in 4.0 mi Calm Calm - N/A   Clear
11:51 PM 64.9 °F 64.0 °F 97% 29.86 in 4.0 mi Calm Calm - N/A   Clear